“In life, you're either a passenger or a pilot. It’s your choice.”

WELCOME TO YOUR AVIATION DREAM!

What's new Up There Icon

WHAT’S NEW HERE?

4000+ aviation terms, acronyms and definitions!
Make your study a little easier with the aviation glossaries that gather over 4000 terms and acronyms extracted from weather, communications, technical and more general topics…
Partnership Icon

PARTNESHIP ANNOUNCEMENT

I am proud to announce a partnership with nizul Logo, study partner of every pilot who wants to consolidate their ground school knowledge and master their written examination.

Try Me Icon

ALL YOURS FOR 30 MINUTES!

Not sure you’d get along with a freelance instructor? How about giving it a try with a 30 minute flight?
My treat! All free.

Resources Tool Box

STUDENT RESOURCES

As a registered student training with me, you get access to a whole lot of files, tools, documents, aviation glossaries, videos, quizzes, sample tests, etc… 

Control Tower Icon

QUESTIONS? CHECK F.A.Q.

In aviation, the only stupid question is the one you didn’t ask. And there is a big chance yours has already been answered in the FAQ. Check it out!

Brain Icon

ARE YOU WIRED FOR FLYING?

Flying an aircraft is usually not the most difficult part of the “problem” and it takes a certain mindset to deal with the other aspects of a flight. Find out wether…

THEY DID IT!

Meet those who refused to be the passengers of their lives, and learn about their experience.

QUICK FACTS

Aviation is a world of serious numbers.
Here are my own, and they count as much as the other ones.

0
YEARS OF
WISDOM
0
YEARS OF
SKY FUN
0
AMAZING
STUDENTS
0
HOURS OF
PURE EXCITEMENT

Grow some wings,
Come fly with me!

Vancouver Island Weather

METARs and TAFs.
VICTORIA INTL (CYYJ)
METAR:

CYYJ 271000Z 34003KT 1/4SM R27/2000V2600FT/N FG VV002 01/01 A3040 RMK FG8 SLP297

TAF:

TAF AMD CYYJ 270835Z 2708/2806 32006KT 3SM BR OVC006 TEMPO 2708/2720 1/4SM FG OVC002 FM272000 35006KT P6SM BKN008 TEMPO 2720/2723 SCT008 BKN012 FM272300 35006KT P6SM SCT015 FM280400 26005KT P6SM SCT005 SCT015 TEMPO 2804/2806 BKN005 RMK NXT FCST BY 271200Z

NANAIMO (CYCD)
METAR:

CYCD 270500Z 25004KT 1/4SM FZFG VV001 M00/M00 A3038 RMK FG8 LAST STFD OBS/NEXT 271400Z SLP290

TAF:

TAF AMD TAF AMD CYCD 270347Z 2703/2705 VRB03KT 1/2SM FG OVC002 TEMPO 2703/2705 3SM BR OVC005 RMK NXT FCST BY 271600Z

LONG BEACH (CYAZ)
METAR:

CYAZ 270100Z 00000KT 15SM SCT250 05/04 A3029 RMK CC3 LAST STFD OBS/NXT 271500UTC SLP259

TAF:

TAF AMD TAF AMD CYAZ 262048Z 2620/2701 VRB03KT P6SM FEW002 RMK NXT FCST BY 271700Z

For more in-depth weather information, please, check Collaborative Flight Planning Service

For all Runway conditions in CYYJ, please check

IIDS Web View

Windy’s Forecast & Observations